Wind_Speed
16 16 16 16 16 16 16 16 16 16 15 15 15 14 14 13 13 13 14 14 16 16 14 14 12 10 9 11 12 11 11 10 9 5 6 12 14 14 17 22 24 25 25 25 26 26 27 27 26 25 22 20 17 15 14 14 12 12 12 10 8 6 6 7 7 7 6 5 5 3 5 7 7 6 7 6 5 5 5 6 8 10 12 13 14 14 15 19
16 16 17 17 17 17 17 17 17 17 16 16 15 15 14 14 13 12 12 13 15 15 15 15 14 12 11 11 11 12 11 11 9 6 11 15 13 11 14 18 21 24 24 24 24 24 24 25 27 26 24 22 19 17 16 15 14 12 12 10 8 7 8 8 6 6 6 6 5 3 4 6 6 5 4 3 3 3 3 3 6 10 11 13 14 15 16 20
17 17 17 18 18 18 18 18 18 17 16 16 15 15 15 14 14 13 12 12 13 14 15 15 16 14 13 12 11 12 11 11 10 10 14 14 12 12 12 14 18 21 22 21 20 20 20 21 24 26 26 24 22 19 18 17 15 13 12 10 8 9 9 8 7 6 5 5 5 4 3 4 4 5 4 3 1 2 3 3 3 6 6 9 13 14 15 21
19 19 19 19 19 19 19 19 19 18 16 15 15 14 14 14 14 14 13 12 13 13 13 14 15 15 15 14 11 11 11 12 12 12 15 13 12 12 12 13 14 18 22 23 22 21 21 22 24 26 27 26 24 22 21 19 16 14 12 7 8 12 11 10 8 6 5 5 6 4 3 2 3 4 5 4 3 2 4 5 4 3 3 4 9 12 15 19
20 20 20 20 20 20 20 20 19 18 16 15 15 14 14 13 14 14 14 13 13 12 12 13 14 15 15 15 13 12 11 12 12 11 13 14 14 13 14 13 12 17 22 24 25 24 25 25 26 27 28 27 26 25 22 19 16 15 10 5 11 14 12 12 9 7 7 7 7 5 3 2 3 3 4 5 7 7 6 6 6 6 6 4 5 8 13 17
20 21 20 20 19 19 19 20 19 18 16 15 15 15 14 13 13 14 14 14 14 13 12 12 13 14 14 15 14 13 12 11 11 10 11 13 14 14 15 14 13 17 22 25 26 26 27 28 28 29 30 29 27 26 23 20 18 16 11 9 14 16 14 14 11 8 7 6 6 5 5 5 5 3 1 4 7 7 6 6 6 6 7 7 6 7 9 14
21 21 21 20 19 19 19 20 19 18 16 16 15 15 15 15 14 14 14 15 15 14 14 13 13 12 14 14 15 15 13 13 13 10 11 12 13 14 14 15 16 18 22 25 27 28 28 29 29 29 29 30 29 27 24 22 20 18 13 11 16 18 16 15 14 11 8 6 6 6 7 7 6 5 2 4 6 5 4 3 3 3 4 6 8 8 9 12
22 22 22 21 20 19 20 20 19 18 17 16 16 16 16 17 17 17 16 16 16 16 15 14 14 12 13 13 15 15 14 16 15 11 12 13 13 13 13 15 17 19 21 24 26 26 26 27 28 28 29 30 29 28 26 23 23 20 14 12 18 20 17 17 16 13 10 8 7 8 7 6 6 8 6 5 4 4 3 2 1 0 1 3 7 10 11 14
22 22 22 21 20 19 20 20 20 18 17 18 18 17 18 19 19 19 19 18 17 17 16 16 15 13 12 13 14 15 14 17 16 14 15 15 15 14 13 13 15 18 20 22 25 26 26 25 24 25 27 28 28 28 27 26 24 21 16 13 18 22 19 18 18 15 13 11 10 10 8 6 6 9 9 9 7 5 5 3 1 2 0 1 5 11 13 15
22 22 22 21 21 20 20 20 20 19 19 19 20 20 21 22 22 21 21 20 19 18 18 17 16 14 13 13 13 14 14 17 18 17 18 18 19 18 16 14 14 17 19 21 24 27 26 21 18 20 23 25 27 27 27 28 26 22 19 16 19 22 21 20 20 17 14 13 12 11 8 5 8 11 11 10 8 6 5 4 1 2 1 1 3 9 15 15
21 21 21 21 20 20 20 20 20 20 20 20 21 21 22 23 23 23 22 22 22 20 19 18 17 16 14 13 13 14 15 19 20 20 20 20 21 21 20 17 14 15 18 20 23 24 23 19 17 18 21 24 26 28 29 30 26 23 22 19 20 23 23 23 22 18 16 15 12 12 10 10 12 12 13 10 9 7 5 4 2 2 2 3 3 8 15 17
21 21 21 21 20 19 19 20 20 21 21 22 22 22 22 23 23 23 23 23 23 22 21 20 19 17 15 14 15 15 15 18 21 22 22 21 22 23 22 19 17 16 18 19 19 21 22 21 18 17 19 21 24 26 28 30 28 25 24 22 22 24 24 25 23 19 18 16 12 12 13 14 15 12 11 10 9 9 8 7 5 4 4 5 5 8 14 19
20 21 22 21 20 19 19 19 20 20 21 22 22 22 23 23 23 23 23 24 24 23 23 22 20 17 16 15 16 15 14 17 22 23 22 21 22 23 22 20 19 19 20 19 18 20 22 22 20 18 19 19 21 23 24 27 29 28 26 24 24 24 26 25 24 22 20 16 12 11 13 15 16 13 11 11 9 9 9 8 6 6 6 6 7 8 13 19
21 22 22 22 21 20 19 19 20 20 20 21 22 22 22 23 22 22 23 24 23 23 23 23 20 17 16 16 15 15 15 16 21 23 22 22 23 24 24 21 21 21 21 22 20 21 22 23 22 21 21 20 21 21 22 23 26 29 28 26 26 24 26 27 24 24 22 17 14 12 15 18 16 15 15 13 11 9 8 8 8 8 8 7 8 9 13 18
22 22 23 23 22 20 20 19 19 20 20 21 21 21 22 22 21 21 23 24 23 22 21 21 19 16 16 16 15 15 15 16 20 23 24 24 24 25 25 23 21 21 23 24 23 23 24 25 25 24 23 22 21 21 22 21 22 28 27 25 29 28 26 28 26 25 23 19 17 15 16 18 16 15 17 15 13 12 11 11 10 10 10 9 9 9 11 16
23 23 23 24 22 21 20 19 19 20 20 21 21 21 21 21 20 20 21 23 22 21 19 18 17 15 15 15 14 14 14 17 19 22 25 25 26 26 26 25 24 23 26 27 25 25 26 26 26 25 23 23 24 22 21 20 20 26 27 25 31 31 27 27 27 27 25 21 21 19 18 18 15 14 16 16 15 14 14 14 13 12 12 11 10 10 11 15
23 23 23 24 23 21 21 20 20 21 21 21 22 22 21 20 19 19 19 21 20 18 17 16 14 13 11 11 11 11 12 16 19 22 25 27 27 27 27 26 25 26 29 29 28 28 28 29 28 27 26 25 26 25 21 20 21 25 29 31 32 31 29 28 25 25 26 24 23 23 23 23 17 13 14 15 15 16 15 15 15 15 13 13 12 12 12 13
23 23 23 24 24 22 22 22 21 22 22 22 23 23 22 20 19 17 17 17 16 16 14 12 13 11 9 11 12 10 11 15 19 23 25 27 28 27 27 25 24 27 31 31 30 30 30 31 30 29 30 29 29 31 27 22 25 29 31 32 32 30 30 30 24 21 24 24 22 23 25 27 23 18 16 15 16 17 17 16 16 16 15 14 14 14 13 13
24 24 24 25 24 24 24 24 24 24 24 24 23 24 23 21 19 15 13 14 14 13 12 12 13 11 10 14 15 13 11 13 18 23 26 27 28 28 28 26 24 27 31 32 31 32 33 32 34 34 36 37 36 38 34 25 25 32 33 30 31 31 31 32 26 20 20 20 21 24 26 26 24 21 19 18 18 18 18 19 19 19 19 18 17 16 15 14
26 25 25 25 25 25 25 25 26 26 25 25 25 24 23 21 19 13 9 12 12 12 12 13 14 12 12 14 15 15 11 10 15 21 26 27 28 29 28 27 26 29 32 33 33 33 33 35 40 41 41 42 39 37 36 31 25 27 29 28 28 32 33 31 29 23 21 19 20 24 26 26 25 21 20 19 19 20 20 20 21 21 20 19 19 18 17 15
27 26 26 26 26 26 26 26 27 27 27 26 26 25 23 22 20 16 12 11 12 12 12 12 12 13 13 14 15 15 12 8 12 17 24 27 28 28 29 29 29 33 35 32 33 33 34 38 42 43 42 40 37 34 33 32 27 22 24 27 26 29 34 32 30 27 23 22 22 24 26 29 29 24 20 20 21 22 21 21 22 22 21 19 18 18 18 18
27 27 26 26 26 26 26 26 26 26 26 25 25 24 23 21 19 19 18 14 13 13 11 10 11 12 13 14 15 14 11 7 11 16 22 27 29 28 28 30 30 33 35 34 34 34 37 42 42 42 41 37 33 32 31 31 31 25 22 25 24 26 32 33 32 29 23 23 24 24 27 30 31 26 21 22 23 22 21 22 23 22 21 20 18 16 17 19
27 27 26 26 26 26 25 25 24 24 23 23 23 21 20 19 17 18 19 16 14 13 11 9 10 11 12 11 11 10 8 6 12 17 20 25 29 28 28 31 31 32 35 38 39 38 39 40 42 42 38 35 34 33 31 30 33 32 26 24 24 27 28 23 23 27 24 23 25 26 29 32 33 29 26 25 24 22 22 23 24 23 23 22 20 18 18 18
27 27 27 26 25 26 25 24 22 22 21 21 20 19 17 16 16 16 18 17 14 12 10 7 8 9 10 8 6 5 5 6 12 18 20 23 27 29 29 29 30 33 36 38 39 41 40 37 39 41 37 35 35 34 33 31 33 36 36 31 26 28 29 20 17 20 19 20 25 25 25 31 35 32 30 28 25 24 25 25 25 24 24 24 22 20 19 18
28 28 28 27 26 26 26 23 21 20 20 19 17 17 15 14 14 14 16 16 11 9 7 7 7 8 8 7 5 3 5 8 11 17 19 22 26 29 29 28 30 33 37 37 37 41 41 37 35 33 35 39 37 36 36 34 32 33 40 41 33 28 27 24 20 16 12 13 19 19 15 23 34 35 33 31 28 26 27 28 27 25 24 23 21 21 20 19
29 29 28 28 26 26 26 23 21 20 18 17 17 15 13 11 12 12 14 13 8 6 6 7 7 6 7 6 4 4 5 8 11 16 17 18 23 27 28 28 30 32 35 35 35 39 40 40 36 24 23 31 37 39 38 36 31 30 38 43 38 32 26 24 22 16 11 10 14 15 11 15 25 32 35 34 31 30 29 28 28 26 25 22 20 20 20 19
30 29 28 29 27 26 25 23 22 21 18 17 16 14 10 9 9 10 10 8 5 4 5 6 6 6 8 7 4 4 4 6 8 12 14 15 18 23 26 28 29 30 32 32 32 37 39 41 41 32 22 20 28 38 41 38 33 30 36 38 37 37 33 29 23 17 14 14 15 15 13 15 22 30 36 35 32 32 32 31 29 27 25 23 21 20 19 18
30 30 29 29 28 26 25 24 23 20 18 17 17 14 10 7 6 7 5 2 3 5 5 6 7 7 7 7 5 5 6 6 6 8 11 13 15 19 23 26 28 28 31 33 29 31 37 40 41 40 35 28 27 30 33 37 37 32 29 28 31 35 35 32 25 20 17 17 20 19 15 12 20 33 37 34 34 33 35 35 31 29 26 24 23 21 19 18
31 31 30 29 28 25 25 25 23 20 15 14 15 13 9 6 5 4 2 2 4 6 6 6 8 8 6 5 6 7 9 9 9 9 9 10 12 15 19 23 25 25 28 33 30 26 32 36 36 37 40 41 36 27 24 28 36 36 23 14 19 25 27 26 23 21 17 17 22 23 20 13 19 34 35 31 38 37 36 36 32 31 28 26 26 23 21 20
31 31 30 29 27 24 23 23 23 20 14 11 11 11 7 5 4 2 2 3 4 5 7 8 8 10 9 7 6 8 10 10 11 12 9 6 9 13 17 20 24 24 23 28 30 28 30 30 28 29 33 38 36 29 22 19 27 35 25 8 7 14 19 20 21 21 15 16 25 26 24 17 18 34 35 32 41 41 36 35 32 31 30 29 28 26 24 23
31 31 30 29 27 24 20 19 19 18 15 10 8 7 5 4 4 3 2 5 6 6 8 9 9 11 12 10 7 7 9 10 11 10 6 5 8 11 15 17 23 25 23 24 26 29 32 29 26 26 23 23 27 28 22 15 20 28 23 15 10 11 15 15 18 20 13 13 21 24 24 21 20 34 43 41 43 41 37 35 32 31 32 31 30 27 26 24
31 31 30 28 26 23 20 17 16 16 15 8 4 4 3 3 4 6 5 4 4 6 7 9 11 13 15 14 10 8 9 9 8 7 4 4 6 11 16 17 22 23 21 24 23 24 30 32 29 25 18 16 20 25 21 16 22 26 23 21 16 9 9 11 11 14 14 11 12 14 19 23 24 34 48 48 43 41 39 37 35 33 32 32 31 29 27 24
31 31 29 28 25 22 19 18 16 15 14 8 4 4 3 3 4 7 8 5 2 5 7 9 12 14 15 14 11 7 7 8 6 4 2 1 3 9 14 15 20 22 18 20 22 19 22 28 31 26 19 18 20 23 24 21 24 29 27 25 20 11 7 9 8 8 12 11 11 11 13 18 19 27 47 53 45 42 41 38 36 35 34 34 31 29 26 23
31 30 29 27 24 20 18 18 17 15 13 7 3 3 5 5 4 6 7 7 6 6 8 9 10 12 13 12 10 7 4 5 5 2 1 3 4 6 9 9 15 21 18 16 20 21 18 17 24 28 25 23 24 24 23 23 25 28 28 26 24 19 12 9 7 7 9 7 11 16 13 10 8 13 34 48 46 44 43 40 38 37 37 35 32 29 26 23
30 30 28 26 23 21 18 17 17 15 13 7 2 5 7 6 6 6 4 6 6 6 7 9 10 10 9 7 7 7 5 5 5 2 1 4 5 4 5 5 6 12 16 13 13 20 22 16 17 26 29 26 27 27 24 23 25 28 29 28 28 28 21 11 7 9 9 7 10 17 16 13 9 8 21 36 43 44 43 42 40 39 39 37 35 32 28 24
28 27 26 24 22 21 19 17 16 16 13 6 2 6 9 8 7 6 4 3 3 4 6 7 9 8 7 6 7 8 7 4 4 3 1 3 4 2 2 4 2 4 11 12 9 10 16 17 17 22 28 28 27 28 28 26 22 22 28 32 28 26 23 16 10 9 10 8 9 14 18 22 19 16 20 27 35 40 43 43 42 40 39 38 38 36 31 25
26 25 24 22 20 20 19 16 16 15 11 6 4 7 9 8 7 6 3 2 3 4 6 6 7 6 6 8 10 11 9 5 4 3 1 0 2 2 2 3 4 3 4 9 8 6 9 14 17 21 26 30 28 26 30 32 25 18 23 29 25 21 22 20 13 9 9 9 7 10 16 20 18 15 18 23 28 32 37 42 43 42 40 39 38 37 33 27
26 25 23 21 19 19 18 15 13 11 9 6 5 7 8 7 6 5 3 3 4 5 6 5 5 5 5 7 9 11 11 6 4 3 1 1 2 3 2 2 3 3 2 3 4 4 8 10 15 23 25 27 29 27 26 32 33 24 19 21 21 18 19 21 16 9 9 9 7 8 12 17 19 15 13 18 25 29 32 37 40 42 43 40 38 36 33 27
26 24 22 20 20 20 18 12 9 7 6 5 5 8 8 6 4 3 3 2 3 4 4 4 4 4 4 6 8 9 9 7 6 4 1 2 2 3 3 2 1 2 4 1 2 2 4 6 9 19 24 23 27 29 22 22 30 31 24 21 21 19 18 22 21 14 9 7 7 7 8 13 22 23 18 18 23 27 31 34 37 39 41 40 37 36 32 27
25 22 21 20 21 21 16 11 8 6 3 5 7 8 8 7 4 3 3 3 4 4 4 4 4 3 3 5 7 7 7 7 7 5 3 3 3 4 3 3 4 3 4 3 3 4 3 5 7 14 22 20 21 27 25 18 20 26 26 20 20 21 19 18 22 23 17 9 6 6 6 9 16 20 22 24 25 28 30 31 33 36 38 38 36 34 32 27
24 21 20 21 23 20 14 11 10 6 2 4 7 9 9 8 5 3 3 3 4 4 4 4 4 5 5 5 5 6 6 7 6 5 4 4 3 3 3 4 5 4 4 4 4 4 3 4 7 11 18 18 17 23 29 25 20 21 22 19 18 20 18 14 16 24 26 18 10 8 7 8 9 7 8 13 18 22 25 28 31 33 35 37 36 34 31 27
24 22 20 21 23 18 11 12 11 6 2 5 7 8 8 7 6 5 3 3 3 4 5 5 6 6 6 6 6 7 6 5 6 5 4 4 4 4 5 6 7 6 5 5 4 4 4 4 7 12 17 21 20 19 24 26 21 19 20 21 22 21 19 14 9 12 21 24 19 15 13 14 15 14 10 7 10 16 20 25 30 32 33 35 35 34 32 28
25 22 20 21 22 16 11 12 10 4 3 6 8 7 7 7 7 6 6 5 6 6 7 7 8 8 7 7 8 8 6 5 6 5 5 6 7 7 8 7 7 7 6 5 4 3 4 4 5 9 15 21 21 16 19 23 21 19 19 21 24 22 20 19 12 5 8 16 18 15 13 12 18 25 23 15 12 13 17 22 26 28 31 33 33 33 31 29
24 21 19 21 21 16 13 12 8 3 3 7 8 8 8 7 7 7 8 8 8 8 8 9 10 9 9 8 8 8 7 6 5 5 7 9 10 9 9 9 9 7 6 5 5 4 3 3 3 5 7 13 15 14 16 18 19 19 18 19 22 20 20 22 18 10 9 12 16 16 11 9 14 22 23 19 17 13 12 17 22 24 25 27 29 30 29 30
24 21 20 21 19 16 16 14 9 4 3 7 7 7 7 7 7 7 7 9 10 10 10 10 11 10 9 8 8 8 9 8 6 7 9 10 11 11 11 11 10 8 6 5 6 6 6 7 6 5 5 7 7 7 7 10 14 15 14 16 19 19 21 19 13 10 10 10 16 20 14 10 13 17 17 16 16 14 11 13 19 23 24 25 26 27 26 27
24 21 21 22 18 18 20 16 10 6 1 6 7 7 7 7 7 7 8 9 10 10 10 10 10 10 9 9 9 9 11 11 9 9 10 11 12 13 13 12 10 9 7 6 6 5 6 9 10 11 12 11 8 6 5 7 12 13 12 14 15 15 17 15 10 10 9 8 15 22 20 17 16 16 14 13 13 14 15 13 14 17 20 22 23 24 24 25
25 22 22 22 18 17 20 16 11 9 3 4 6 6 6 6 6 6 7 8 8 9 9 10 10 10 10 11 10 10 11 12 12 12 13 13 13 13 14 12 11 10 8 7 7 6 5 9 11 13 18 20 18 16 13 11 13 15 15 16 16 13 12 13 13 14 13 12 13 15 21 26 24 17 13 10 11 14 17 16 14 14 15 17 19 20 23 25
25 23 22 21 18 18 18 14 11 10 6 2 3 4 4 3 3 4 4 6 7 7 8 9 10 11 11 11 11 11 11 11 12 12 12 12 12 13 13 12 11 12 10 7 7 7 6 8 9 12 18 21 21 20 17 14 14 15 16 18 19 16 13 15 16 17 18 18 15 14 21 29 29 26 24 21 20 21 22 21 21 19 18 17 18 19 21 24
24 23 22 21 19 17 16 13 11 10 7 4 2 3 3 3 3 4 4 5 6 7 8 9 11 12 12 13 12 12 12 11 11 12 12 13 14 14 14 13 12 12 11 8 8 8 7 6 6 9 15 20 23 22 18 16 15 17 19 20 20 20 18 17 18 18 19 21 22 23 27 30 30 30 29 28 27 27 28 28 27 26 25 24 23 22 21 22
23 22 21 21 18 16 15 13 10 9 7 4 3 3 3 2 3 5 6 6 8 9 9 9 10 11 11 12 12 11 13 13 13 14 14 15 16 15 15 14 12 12 12 11 10 9 7 7 7 8 13 18 22 21 19 17 16 19 21 21 21 21 20 19 18 17 16 19 21 23 28 35 38 35 32 29 27 28 30 30 30 29 29 27 25 23 22 21
22 20 20 19 17 17 15 12 11 10 7 3 3 3 3 3 3 6 7 8 9 10 10 9 9 9 9 9 10 10 12 13 14 15 15 17 18 17 17 16 14 15 16 15 13 12 11 11 10 9 12 16 16 16 16 16 17 21 24 25 23 20 19 18 17 14 12 15 18 19 24 32 37 40 40 37 34 33 33 33 32 32 30 28 26 24 23 22
22 20 18 16 15 16 14 11 11 12 8 3 1 2 3 4 5 6 6 7 8 10 10 9 9 8 6 7 8 10 11 12 14 15 16 18 20 20 20 20 18 18 19 18 17 16 14 12 9 7 10 13 13 12 13 12 12 16 21 25 24 21 20 19 16 12 11 13 16 20 26 31 34 39 42 41 40 39 38 37 36 34 32 29 27 26 25 23
Wind_Direction
352 350 349 348 347 348 346 344 342 341 340 337 334 331 326 320 312 304 298 293 291 291 289 288 283 278 273 273 274 271 266 262 261 250 224 228 226 219 217 214 211 216 219 220 221 218 213 209 206 207 206 205 207 212 212 210 215 223 227 226 216 193 156 137 117 94 105 96 52 61 127 157 171 161 156 151 154 161 158 160 163 161 155 159 157 160 182 187
350 348 347 346 345 345 344 344 341 341 342 340 338 335 332 327 321 313 305 298 292 290 288 286 282 279 272 267 268 270 269 262 257 232 228 237 238 235 230 226 218 217 220 220 223 223 220 216 210 208 207 207 207 209 211 214 220 225 229 227 209 187 162 149 132 106 107 104 75 64 118 150 166 167 168 153 135 133 124 137 168 173 163 163 163 156 173 187
345 343 343 341 340 340 340 341 339 340 342 341 339 338 335 331 326 321 316 308 298 292 288 284 281 279 274 267 263 266 268 263 256 234 235 244 241 237 234 232 226 221 222 219 221 223 223 223 219 216 211 208 208 209 211 216 224 227 230 230 203 180 165 155 148 126 109 111 100 89 133 160 164 166 176 181 151 125 108 86 131 177 176 170 168 157 166 185
341 339 339 338 337 337 337 338 337 338 342 342 341 341 340 336 333 329 325 319 307 299 291 285 280 278 274 269 263 261 262 263 257 240 240 244 237 230 226 227 223 221 221 216 213 211 212 215 217 220 218 213 208 209 213 217 223 225 229 231 189 177 169 162 161 153 137 133 127 120 140 171 178 157 151 145 93 91 124 96 95 148 173 177 177 162 162 183
339 338 338 338 337 336 335 336 336 337 340 341 339 340 342 341 339 334 331 326 318 310 299 290 282 276 272 269 265 258 257 263 259 244 242 244 239 228 223 223 213 215 219 217 214 210 208 208 210 214 217 216 212 210 214 218 223 226 225 205 184 181 175 173 174 174 162 149 145 146 153 194 213 168 129 116 88 85 117 111 98 117 129 135 184 180 166 178
338 338 338 339 338 336 335 335 334 334 337 337 335 337 341 341 340 337 333 328 325 319 309 299 287 278 271 266 264 256 251 256 254 245 241 240 241 232 224 223 210 211 216 216 216 213 211 209 208 210 212 214 214 213 216 219 222 226 221 193 190 189 182 183 183 185 177 159 160 167 176 195 212 216 142 125 113 103 110 120 117 121 135 139 165 193 184 178
335 335 336 338 338 336 335 334 333 331 331 331 330 333 337 337 337 335 331 327 325 321 315 308 297 287 275 265 259 255 248 248 246 242 241 238 238 233 225 222 212 212 215 215 216 216 216 214 212 211 211 212 213 214 216 220 222 226 221 199 198 196 189 193 190 190 187 172 185 193 193 198 209 233 228 143 151 149 118 122 136 125 138 149 155 176 196 184
331 331 332 334 335 335 333 332 332 329 325 324 323 327 331 332 332 330 329 326 323 319 317 313 307 299 284 268 258 252 243 244 244 235 237 238 234 228 221 220 216 215 217 217 218 220 222 220 218 214 214 214 213 214 214 219 223 225 221 206 204 200 196 200 195 193 191 185 204 210 200 206 225 240 215 168 189 198 169 163 209 235 133 153 161 166 186 189
329 328 328 329 331 331 330 329 331 329 322 316 315 319 323 325 327 327 326 324 322 319 317 315 311 307 295 278 261 251 240 240 242 231 230 233 231 220 207 212 218 220 220 218 217 221 224 224 222 220 219 218 216 217 216 218 222 222 220 210 204 202 202 204 199 196 197 196 209 212 205 219 247 241 207 193 216 204 180 195 245 274 176 151 180 169 174 185
329 327 326 326 327 328 327 326 328 329 323 315 311 313 315 316 319 322 323 321 320 318 319 316 311 308 300 285 267 254 241 234 236 231 225 227 229 222 208 209 219 221 222 221 217 218 221 223 225 224 223 222 220 220 219 219 221 221 221 213 204 205 204 205 203 200 204 205 210 218 215 233 256 237 204 195 208 193 175 189 217 276 239 200 204 179 172 178
330 328 325 325 325 325 325 323 325 326 324 319 314 315 313 312 315 317 317 316 315 316 317 315 310 305 299 290 273 255 239 231 231 228 224 222 227 228 220 217 220 220 219 221 221 218 219 219 220 221 221 222 222 221 222 221 220 220 222 217 208 208 206 206 207 204 211 211 211 227 227 234 240 215 192 196 209 213 212 212 236 275 242 220 218 196 178 174
331 328 326 325 325 325 324 322 323 323 322 319 318 319 317 315 316 316 314 311 311 313 313 311 309 303 296 287 274 260 240 232 231 227 225 222 224 229 227 221 217 216 212 213 220 218 216 215 213 215 219 222 222 222 225 224 221 221 223 221 213 211 210 208 209 207 213 212 209 230 236 232 224 195 186 207 216 221 230 231 243 254 245 231 220 210 189 179
333 329 327 327 327 328 326 324 325 323 322 321 321 321 318 317 318 317 313 310 310 311 311 309 307 303 295 286 277 267 246 231 229 228 226 222 222 226 226 220 213 212 205 199 207 214 214 213 210 211 216 221 222 222 226 225 223 221 223 224 219 220 217 210 210 211 214 212 206 227 243 231 218 208 209 218 220 224 230 232 243 253 248 237 223 216 203 191
334 331 328 327 329 330 328 329 330 328 327 324 324 322 319 318 317 315 312 309 310 310 309 308 308 305 296 288 278 267 252 232 227 226 224 222 221 222 223 217 209 211 204 190 192 206 212 211 210 210 212 218 220 220 224 226 224 221 224 227 225 230 223 209 209 213 215 216 209 225 245 229 215 223 227 228 237 238 241 243 250 259 255 244 231 223 213 203
332 330 327 326 328 330 330 333 335 335 334 330 328 325 322 321 318 315 310 307 309 310 310 309 311 310 300 291 278 265 255 238 227 222 219 219 219 219 221 216 207 207 203 189 186 197 207 211 211 210 211 216 219 219 222 225 224 220 221 225 227 230 221 209 209 212 216 219 216 224 242 233 218 226 233 238 248 250 254 254 254 260 259 251 237 227 221 212
329 326 324 323 325 327 327 332 335 336 338 337 335 331 327 325 322 317 310 307 309 312 313 312 314 312 304 295 282 269 256 242 229 221 218 216 217 217 217 213 205 202 200 190 185 194 203 208 212 214 213 214 217 219 221 223 224 221 218 220 226 226 216 213 213 214 217 220 220 222 235 238 226 228 238 242 249 252 257 258 258 261 261 254 243 233 227 220
328 323 320 319 321 323 322 325 329 331 335 337 337 335 332 328 326 321 313 311 312 315 316 314 315 311 301 298 294 282 263 247 231 222 218 215 214 215 215 212 205 200 197 188 185 193 200 205 210 213 214 214 215 217 218 220 218 217 217 219 225 223 216 218 217 215 219 222 224 227 233 238 237 239 245 247 251 254 257 259 260 259 257 254 247 238 231 228
331 325 319 316 317 318 316 317 321 324 328 331 333 334 333 331 330 326 316 312 315 318 316 312 314 311 297 297 303 300 277 255 237 223 219 215 212 212 213 212 208 201 195 188 188 194 198 205 209 212 216 214 213 212 211 216 213 211 214 216 221 223 220 220 218 215 218 221 226 231 235 239 242 249 251 252 254 259 264 264 264 261 256 252 249 245 236 233
333 328 321 315 313 314 313 313 316 318 321 325 328 330 331 331 330 328 321 317 322 323 316 309 310 311 299 297 305 308 295 266 243 226 219 215 210 211 210 208 206 200 197 191 190 196 198 203 208 211 213 212 211 211 210 215 215 213 216 218 220 222 223 221 218 214 215 220 224 229 237 241 241 246 249 252 254 260 265 263 262 259 253 250 250 250 244 238
333 330 325 318 314 313 312 312 313 315 318 320 322 324 326 327 325 324 323 327 331 327 317 311 307 304 299 302 309 315 314 280 250 230 221 216 211 210 210 208 202 197 200 196 193 196 200 206 210 210 211 211 211 212 213 217 217 216 219 223 224 225 225 224 223 221 218 224 227 228 237 242 242 243 245 250 253 254 256 255 255 252 248 248 250 251 249 246
333 331 328 324 320 316 314 312 313 315 317 317 318 320 323 326 326 322 319 325 331 323 316 309 301 298 298 304 309 316 322 290 248 228 221 218 214 212 210 210 205 199 199 199 198 198 203 212 215 213 213 213 212 214 217 219 217 215 218 222 225 227 226 224 227 228 225 233 235 229 233 240 240 241 243 248 250 248 246 245 246 248 248 250 252 252 249 248
334 333 333 331 327 323 320 316 317 319 318 317 317 318 321 324 324 321 316 321 327 321 313 300 290 290 294 304 313 318 322 280 229 220 219 216 215 216 213 213 211 206 201 199 202 202 207 215 218 217 217 215 214 216 219 221 219 215 215 219 221 226 226 225 230 234 233 238 240 234 234 238 238 239 241 246 248 245 242 242 245 250 252 252 254 256 251 246
338 338 338 337 334 329 325 324 325 324 320 318 317 317 319 319 317 315 312 316 324 319 308 294 281 283 288 300 316 318 309 259 216 212 216 215 215 217 217 215 214 211 206 203 204 205 210 217 220 221 218 216 218 218 219 222 223 218 214 215 218 221 223 223 230 236 238 241 244 243 242 239 236 238 240 241 245 244 242 245 249 251 253 255 258 263 262 252
340 340 339 339 337 331 328 330 332 327 322 321 318 316 317 317 315 312 309 314 322 316 301 283 277 286 293 302 323 314 274 239 211 209 216 216 213 216 218 217 216 215 212 209 210 212 214 219 223 223 219 218 220 221 220 221 225 223 217 214 215 216 217 216 221 230 237 243 245 248 255 249 237 235 238 240 244 245 243 246 248 248 251 256 258 258 258 254
339 340 338 337 337 332 329 331 330 325 324 325 321 318 319 317 314 309 309 316 320 308 290 284 288 291 301 313 335 313 250 238 219 212 217 219 215 216 218 217 216 217 217 213 214 219 221 224 228 227 225 223 222 222 222 221 225 229 223 217 214 213 214 219 224 233 246 249 245 245 259 256 240 233 236 240 243 243 244 247 246 247 251 252 252 251 251 250
338 340 337 335 335 333 330 328 325 321 322 325 321 319 321 317 312 307 311 316 312 296 283 290 298 296 311 318 322 308 258 243 235 222 219 222 222 220 219 218 217 217 219 216 217 223 224 227 229 226 227 228 226 225 225 223 225 232 231 224 217 215 218 223 230 242 253 248 241 235 242 263 251 237 235 240 243 242 244 247 246 247 250 247 246 247 248 248
337 339 337 333 334 334 330 326 322 319 321 324 319 318 318 313 310 309 314 313 297 292 281 287 297 303 321 319 305 311 267 236 243 236 229 230 229 225 223 223 220 219 218 215 219 226 225 225 227 222 221 229 229 228 228 224 224 232 237 233 224 221 224 230 237 246 253 256 251 235 232 265 267 247 238 239 242 243 243 243 244 247 247 245 244 244 245 247
336 337 336 333 334 334 329 325 322 320 325 326 321 321 319 309 311 310 313 302 272 283 285 289 296 298 315 316 306 303 278 263 261 251 244 240 238 234 229 227 226 224 220 215 217 227 227 226 228 226 223 228 231 232 233 228 225 231 240 242 235 228 228 233 241 248 254 263 260 242 226 248 266 253 244 241 241 242 241 239 242 245 244 243 244 243 246 248
335 336 335 333 335 334 330 325 320 319 326 328 323 322 317 308 313 297 255 232 268 284 286 290 297 296 301 308 307 289 275 278 279 277 270 248 240 238 232 229 227 227 226 223 222 230 232 231 234 234 229 231 234 237 242 234 228 230 236 250 243 234 231 232 237 246 252 256 253 243 227 229 261 254 245 241 240 238 238 238 241 244 244 244 244 246 250 250
334 335 334 334 334 334 330 324 318 317 321 326 324 319 310 299 295 267 219 231 258 288 290 292 301 301 302 298 291 275 267 272 276 288 299 268 242 234 229 226 223 221 224 228 229 231 234 235 239 240 236 236 237 240 245 240 233 232 226 210 215 222 224 228 231 237 246 248 245 242 229 223 253 254 246 240 238 237 238 239 240 243 242 242 244 247 251 253
334 335 335 334 334 332 330 323 318 313 310 317 321 313 303 283 248 199 206 247 263 292 297 300 305 306 313 314 305 289 280 273 269 283 293 250 239 228 217 215 215 215 218 223 229 232 231 233 236 238 241 239 236 237 240 237 232 229 215 195 195 201 207 218 223 223 232 247 242 238 230 224 239 249 246 243 240 238 240 240 239 242 241 241 244 247 251 256
334 336 336 335 333 331 330 327 322 313 307 310 316 304 285 254 218 201 222 251 278 311 316 320 320 317 323 328 324 311 299 288 277 286 283 222 226 215 203 203 203 206 216 217 221 229 228 229 232 234 239 235 227 226 226 223 222 219 208 199 204 198 199 210 208 214 228 240 237 226 224 230 240 248 247 244 242 240 240 240 238 239 241 241 244 247 251 258
335 337 336 334 332 331 329 328 328 321 314 313 315 293 239 218 213 212 222 222 253 318 324 325 326 326 326 329 331 324 304 295 283 282 299 202 204 198 198 207 203 202 214 215 212 219 224 229 230 228 229 226 221 217 212 211 212 211 204 200 202 197 201 216 207 219 234 236 238 225 224 237 244 253 249 243 240 240 239 239 238 237 239 241 244 247 251 257
336 336 336 333 330 329 329 328 329 326 318 314 307 253 216 209 209 209 220 222 237 288 315 321 328 334 333 330 337 345 327 299 285 250 201 181 183 183 188 208 210 207 210 209 207 209 213 226 223 217 217 218 217 217 214 214 215 214 209 204 208 209 209 218 209 220 241 248 231 212 212 233 227 251 252 242 238 240 240 239 237 236 238 240 244 245 247 254
338 336 334 332 329 330 331 328 326 323 316 312 263 215 217 211 204 202 216 232 242 276 311 325 332 337 337 332 339 351 349 325 313 294 191 181 182 187 192 199 213 211 206 202 206 211 216 224 216 211 214 215 216 217 217 220 223 223 215 209 215 215 211 219 230 228 243 265 231 205 211 236 236 254 256 245 240 239 239 239 237 236 238 240 243 244 245 250
340 335 332 332 332 331 329 325 320 316 310 307 232 214 216 205 199 196 205 245 272 305 321 334 340 341 345 342 340 345 344 329 318 324 79 164 174 162 169 170 164 192 194 197 200 205 218 223 214 210 214 215 217 217 217 217 219 221 215 212 216 217 212 220 239 238 237 258 241 211 222 240 248 257 252 245 245 241 238 239 237 236 238 240 242 243 243 246
341 336 334 335 334 330 326 322 316 310 303 290 235 212 204 197 200 203 216 279 298 317 329 339 344 347 354 347 338 335 338 338 329 340 29 185 210 192 128 118 111 98 161 192 202 207 226 223 207 202 209 213 215 219 220 220 219 216 214 213 213 215 219 222 232 236 228 241 238 209 224 236 237 245 242 235 239 240 238 238 236 236 238 239 241 242 242 244
345 340 337 336 334 333 330 325 319 310 295 277 228 201 193 192 205 212 232 289 291 307 327 341 348 348 348 349 341 332 336 349 354 352 330 294 270 216 191 115 96 63 78 183 204 229 242 236 211 202 205 210 212 215 220 223 224 221 219 219 212 207 211 211 216 233 229 236 244 216 223 234 229 230 237 232 233 235 237 237 235 236 237 238 239 241 242 242
348 342 337 337 338 340 339 336 336 327 292 256 205 189 186 187 201 207 212 260 284 295 315 327 336 340 336 340 338 332 335 343 351 354 296 279 290 244 244 258 251 14 4 280 256 285 240 240 229 208 204 208 210 211 215 220 221 221 225 228 219 213 211 207 211 225 227 236 249 223 216 234 236 236 237 238 239 239 239 239 237 236 237 238 238 239 240 240
349 343 338 342 345 346 348 354 2 355 296 231 203 196 191 186 188 192 207 238 268 278 294 311 322 333 328 330 330 323 322 324 332 338 299 287 299 275 275 293 271 287 333 315 286 296 240 225 248 217 204 207 207 207 211 210 205 211 219 221 216 218 218 214 217 222 226 238 246 232 231 235 240 245 247 244 243 242 241 240 239 237 236 236 237 238 240 239
350 347 343 346 350 351 356 2 3 357 309 218 208 209 205 202 200 196 215 243 268 280 289 298 306 306 301 308 311 304 306 311 313 320 306 297 314 306 297 322 319 294 297 314 307 295 256 226 252 234 212 208 204 204 212 214 202 200 208 208 206 214 216 217 222 220 224 234 236 239 254 240 225 235 257 258 254 249 243 239 238 236 233 233 235 239 241 240
351 351 348 349 352 354 359 1 358 353 270 209 208 214 217 222 227 219 216 232 263 283 287 284 284 286 285 288 289 291 297 297 292 299 299 284 296 309 304 314 328 329 314 307 301 292 287 264 257 250 230 213 203 199 208 213 209 206 211 207 205 212 216 220 228 216 221 231 234 243 257 253 240 233 230 246 263 262 254 244 239 236 233 231 233 239 242 241
353 352 350 351 354 356 0 2 4 358 237 213 213 222 226 232 240 242 247 255 268 279 279 273 270 273 280 283 282 283 287 291 287 278 270 284 299 302 305 310 316 332 334 309 282 281 290 285 277 268 243 220 211 208 211 213 213 216 219 213 210 215 217 224 237 242 231 228 222 232 248 250 254 255 248 238 239 252 256 246 238 235 234 234 235 238 242 241
353 352 350 351 354 358 1 8 17 9 235 220 219 225 232 242 248 253 263 268 273 278 279 275 273 277 281 278 273 274 282 289 283 273 276 289 300 302 305 309 310 326 344 314 280 275 266 261 281 283 241 216 214 219 220 218 214 215 216 212 214 217 219 227 236 244 254 237 220 230 246 238 253 266 264 255 243 237 243 240 231 229 232 234 236 237 240 240
352 352 352 352 354 355 359 11 24 17 231 220 225 226 230 246 254 260 271 276 279 281 281 278 276 279 276 270 269 275 284 288 276 275 283 285 292 300 302 304 310 319 330 314 295 286 263 247 249 257 235 206 201 207 208 205 205 208 206 203 208 215 221 229 236 234 241 242 229 234 244 241 250 265 271 270 254 227 218 234 232 228 230 232 233 233 234 235
353 353 354 355 355 354 357 6 16 12 256 215 225 229 232 245 258 270 277 278 281 282 279 275 272 273 270 267 271 273 278 283 278 273 276 279 285 291 293 298 306 309 314 320 316 304 272 252 244 249 253 251 263 288 275 227 219 221 212 199 199 211 224 231 234 228 235 254 245 240 243 248 256 264 265 268 259 234 228 242 241 230 229 230 230 229 227 225
354 353 354 357 357 354 356 1 5 4 348 223 222 228 237 249 260 272 275 273 273 270 270 268 265 266 266 267 270 270 269 273 275 274 275 278 281 282 286 292 293 293 302 315 321 323 290 264 251 248 252 255 265 281 281 263 247 242 232 214 205 214 232 242 241 235 239 256 256 243 242 247 252 256 249 237 240 241 237 240 241 236 234 232 232 234 233 231
354 353 353 356 355 351 354 359 358 356 350 289 231 230 247 266 269 269 266 271 273 265 263 264 262 264 267 269 271 272 274 275 273 272 272 273 274 274 278 282 278 279 283 294 315 324 300 280 269 256 254 254 260 269 273 269 262 255 245 231 221 223 239 254 255 249 248 256 256 240 237 242 246 247 244 237 236 241 242 243 247 253 257 256 254 252 247 241
353 352 353 353 350 348 353 358 355 352 350 329 275 255 273 292 295 285 273 280 286 278 271 264 261 264 267 271 275 274 276 278 272 270 271 272 274 275 278 277 272 270 271 277 299 312 307 297 279 261 257 252 252 258 268 272 267 258 250 241 234 234 244 259 263 259 261 267 264 252 244 243 243 243 244 243 245 248 251 253 257 260 263 265 267 267 262 253
352 352 352 349 345 346 354 358 356 355 352 329 290 276 291 306 307 300 296 297 292 285 282 272 267 270 270 274 280 278 276 276 275 277 280 279 279 279 281 280 272 267 271 275 284 294 298 284 265 266 271 261 253 255 264 269 266 260 252 243 240 243 250 261 265 264 269 272 264 256 252 249 247 246 245 244 245 250 253 255 257 259 261 265 269 273 273 267
352 349 348 345 341 347 356 2 1 0 358 339 270 268 295 306 298 297 297 296 288 282 282 280 278 280 279 281 287 284 280 279 280 282 282 280 279 278 276 273 269 269 272 276 280 283 286 286 278 277 282 274 260 253 255 259 264 266 258 244 237 242 251 258 262 263 273 274 264 254 250 250 251 250 249 248 248 251 255 258 259 261 265 269 273 276 276 270
352 348 346 343 342 348 359 11 12 8 10 15 238 242 289 299 297 301 300 297 294 292 292 290 287 290 293 291 288 282 279 278 278 279 276 274 275 274 272 269 267 268 270 273 277 275 276 286 289 281 274 269 263 255 250 252 260 266 260 247 236 236 246 254 255 259 276 272 258 246 241 244 248 250 250 251 251 252 257 260 261 264 266 269 272 275 274 271
Height
3151 3150 3149 3148 3148 3147 3146 3145 3144 3144 3143 3142 3141 3141 3140 3139 3139 3139 3138 3138 3137 3137 3137 3137 3137 3138 3138 3137 3137 3137 3138 3138 3139 3140 3140 3139 3138 3139 3140 3141 3142 3143 3145 3146 3148 3150 3152 3154 3156 3158 3160 3161 3163 3164 3164 3165 3165 3166 3166 3166 3167 3168 3169 3170 3170 3170 3170 3170 3170 3171 3171 3172 3172 3173 3173 3173 3173 3173 3174 3174 3174 3174 3174 3175 3176 3176 3178 3180
3150 3149 3148 3147 3147 3146 3145 3144 3143 3142 3142 3141 3140 3139 3138 3138 3137 3137 3136 3136 3135 3135 3135 3135 3135 3136 3136 3136 3136 3136 3136 3137 3137 3139 3137 3136 3138 3139 3139 3140 3141 3142 3143 3146 3148 3150 3152 3154 3156 3157 3159 3160 3161 3163 3164 3164 3165 3165 3165 3166 3167 3168 3169 3170 3170 3170 3170 3170 3170 3171 3171 3172 3172 3173 3174 3174 3174 3174 3174 3174 3174 3175 3175 3175 3176 3176 3178 3180
3149 3148 3148 3146 3145 3144 3144 3143 3142 3141 3140 3140 3139 3138 3137 3136 3135 3135 3135 3134 3133 3133 3133 3133 3133 3133 3134 3134 3135 3135 3135 3135 3136 3136 3135 3136 3137 3138 3138 3139 3140 3142 3143 3146 3148 3150 3152 3154 3156 3157 3157 3159 3160 3161 3163 3163 3164 3165 3165 3166 3167 3168 3169 3169 3170 3170 3170 3170 3170 3171 3171 3172 3172 3173 3174 3174 3174 3174 3175 3175 3175 3175 3176 3176 3176 3177 3178 3180
3148 3147 3146 3145 3144 3143 3142 3141 3140 3139 3139 3138 3137 3136 3136 3135 3134 3133 3133 3132 3132 3131 3131 3131 3131 3131 3132 3132 3133 3133 3133 3133 3134 3134 3134 3135 3135 3136 3137 3137 3139 3141 3142 3144 3145 3147 3149 3150 3153 3154 3156 3158 3159 3160 3161 3163 3164 3164 3165 3166 3167 3168 3169 3169 3169 3169 3169 3170 3170 3170 3171 3172 3172 3173 3174 3174 3174 3174 3175 3175 3175 3175 3176 3176 3177 3177 3178 3181
3147 3146 3145 3144 3143 3142 3141 3140 3139 3138 3137 3136 3135 3135 3134 3134 3133 3132 3131 3130 3130 3130 3129 3129 3129 3129 3129 3130 3131 3132 3132 3132 3131 3132 3133 3133 3134 3134 3135 3136 3137 3139 3140 3141 3143 3144 3145 3147 3149 3151 3154 3156 3157 3159 3160 3162 3163 3163 3165 3166 3167 3168 3168 3169 3169 3169 3169 3169 3169 3170 3171 3171 3172 3173 3174 3174 3174 3175 3175 3175 3175 3175 3176 3177 3178 3178 3179 3181
3146 3145 3144 3143 3142 3141 3139 3138 3137 3137 3136 3135 3134 3133 3133 3132 3131 3131 3130 3129 3128 3128 3127 3127 3127 3127 3127 3128 3129 3129 3130 3130 3130 3130 3131 3131 3132 3133 3134 3134 3136 3136 3138 3139 3141 3142 3143 3144 3146 3148 3151 3154 3156 3158 3159 3161 3162 3163 3164 3166 3166 3167 3167 3168 3168 3168 3169 3169 3169 3169 3170 3170 3171 3172 3173 3174 3175 3175 3176 3176 3176 3176 3176 3176 3177 3179 3180 3181
3145 3144 3143 3142 3141 3140 3138 3137 3136 3135 3135 3133 3132 3132 3131 3131 3130 3129 3128 3128 3127 3126 3126 3125 3125 3125 3125 3126 3126 3127 3128 3128 3128 3129 3129 3129 3130 3131 3132 3133 3134 3135 3135 3137 3138 3140 3142 3143 3145 3147 3150 3152 3154 3156 3158 3160 3161 3162 3163 3165 3165 3166 3167 3167 3168 3168 3168 3169 3169 3169 3169 3170 3170 3171 3173 3174 3174 3175 3175 3176 3176 3176 3176 3177 3177 3178 3180 3181
3144 3143 3142 3141 3140 3139 3137 3136 3135 3134 3133 3132 3131 3131 3130 3129 3129 3128 3127 3126 3125 3124 3124 3124 3123 3123 3123 3123 3124 3125 3126 3126 3126 3127 3127 3127 3128 3129 3131 3132 3133 3133 3134 3136 3138 3140 3141 3143 3145 3147 3149 3151 3153 3155 3157 3159 3159 3160 3163 3164 3164 3165 3166 3166 3167 3167 3168 3168 3168 3168 3168 3169 3170 3170 3171 3172 3174 3174 3175 3176 3176 3176 3177 3177 3177 3178 3179 3181
3143 3142 3141 3140 3139 3138 3137 3135 3134 3133 3132 3131 3130 3129 3129 3128 3127 3127 3126 3125 3124 3123 3122 3122 3121 3121 3121 3121 3121 3122 3124 3123 3124 3125 3125 3125 3126 3127 3129 3130 3131 3132 3133 3135 3137 3139 3140 3142 3145 3147 3149 3151 3153 3155 3156 3157 3158 3159 3162 3163 3163 3164 3165 3165 3166 3167 3167 3168 3168 3168 3168 3169 3169 3169 3169 3170 3172 3173 3174 3175 3176 3177 3177 3178 3178 3178 3179 3181
3142 3140 3139 3138 3138 3137 3136 3134 3133 3132 3131 3129 3128 3128 3128 3126 3126 3125 3124 3123 3122 3121 3121 3120 3119 3119 3119 3118 3118 3119 3120 3121 3121 3122 3123 3123 3123 3125 3127 3129 3130 3131 3132 3133 3135 3136 3139 3142 3146 3147 3149 3151 3152 3154 3155 3156 3157 3159 3160 3161 3162 3163 3163 3164 3164 3166 3166 3167 3167 3167 3168 3168 3168 3168 3168 3169 3170 3172 3173 3174 3176 3177 3177 3178 3178 3179 3179 3180
3140 3139 3138 3137 3136 3135 3134 3133 3132 3131 3130 3128 3127 3127 3126 3125 3124 3123 3122 3121 3120 3119 3119 3118 3117 3117 3116 3116 3116 3116 3117 3118 3118 3119 3120 3121 3122 3123 3125 3127 3129 3129 3130 3132 3133 3136 3139 3142 3144 3146 3148 3149 3150 3152 3153 3154 3156 3158 3159 3160 3161 3161 3162 3162 3163 3165 3165 3166 3166 3166 3167 3167 3166 3166 3167 3168 3169 3171 3172 3173 3175 3176 3177 3178 3178 3179 3179 3180
3139 3138 3136 3135 3134 3134 3133 3131 3130 3129 3128 3127 3126 3125 3124 3123 3122 3121 3120 3118 3118 3117 3117 3116 3115 3114 3114 3114 3112 3113 3114 3115 3116 3116 3118 3120 3121 3121 3123 3125 3126 3127 3128 3130 3133 3136 3138 3141 3143 3145 3146 3147 3149 3150 3151 3152 3155 3156 3157 3158 3159 3160 3160 3161 3162 3164 3164 3165 3166 3166 3166 3165 3165 3166 3167 3168 3168 3169 3171 3172 3174 3175 3177 3178 3178 3179 3179 3179
3139 3136 3135 3134 3133 3132 3131 3130 3129 3128 3126 3125 3124 3123 3122 3121 3120 3119 3118 3116 3115 3115 3114 3113 3113 3112 3112 3111 3110 3110 3112 3113 3113 3114 3116 3118 3118 3119 3121 3122 3124 3125 3126 3128 3131 3134 3136 3139 3141 3143 3144 3146 3147 3148 3149 3150 3153 3154 3156 3156 3157 3158 3158 3160 3162 3162 3163 3164 3165 3166 3165 3164 3164 3166 3166 3167 3167 3168 3169 3171 3173 3174 3176 3177 3178 3179 3179 3179
3137 3135 3133 3132 3131 3131 3129 3128 3127 3126 3125 3123 3122 3121 3120 3119 3118 3117 3115 3113 3113 3113 3112 3111 3110 3110 3109 3108 3108 3108 3109 3110 3110 3112 3114 3115 3116 3117 3118 3120 3122 3123 3124 3126 3128 3132 3135 3137 3139 3140 3142 3143 3144 3146 3147 3149 3150 3153 3154 3155 3155 3156 3156 3159 3161 3161 3162 3164 3165 3165 3164 3163 3164 3165 3165 3166 3167 3167 3168 3170 3171 3173 3175 3176 3177 3178 3179 3179
3136 3134 3132 3130 3130 3129 3128 3127 3126 3124 3123 3121 3120 3119 3118 3117 3116 3115 3113 3111 3111 3110 3109 3109 3108 3108 3107 3105 3105 3105 3106 3107 3108 3109 3111 3113 3114 3115 3116 3118 3119 3121 3123 3124 3126 3129 3133 3135 3137 3138 3139 3141 3143 3145 3146 3147 3148 3150 3152 3153 3153 3153 3155 3157 3159 3160 3161 3163 3164 3164 3162 3162 3164 3165 3164 3165 3166 3166 3168 3168 3170 3172 3174 3175 3176 3177 3178 3179
3134 3132 3130 3129 3128 3127 3126 3125 3124 3123 3121 3120 3118 3117 3116 3115 3114 3113 3110 3108 3108 3108 3107 3107 3106 3106 3105 3104 3103 3103 3104 3105 3106 3107 3108 3110 3111 3112 3114 3115 3117 3119 3121 3122 3124 3127 3130 3133 3135 3136 3138 3139 3141 3143 3144 3146 3146 3147 3149 3150 3150 3151 3154 3156 3157 3158 3160 3161 3161 3162 3161 3160 3162 3163 3163 3164 3165 3166 3166 3167 3169 3170 3172 3173 3175 3176 3178 3179
3133 3131 3129 3127 3126 3125 3124 3123 3122 3121 3120 3118 3117 3115 3114 3113 3112 3110 3108 3106 3106 3106 3105 3105 3105 3104 3103 3102 3102 3102 3102 3103 3104 3105 3106 3107 3108 3110 3112 3113 3115 3116 3118 3120 3122 3124 3127 3130 3132 3134 3135 3137 3138 3140 3142 3142 3142 3143 3145 3147 3147 3150 3153 3153 3155 3157 3158 3159 3159 3160 3159 3159 3161 3162 3162 3163 3164 3164 3165 3166 3167 3168 3170 3172 3173 3175 3176 3178
3131 3129 3127 3125 3124 3123 3122 3121 3120 3119 3118 3117 3115 3113 3112 3111 3110 3109 3106 3104 3104 3104 3104 3104 3103 3103 3102 3101 3101 3101 3101 3101 3101 3103 3104 3105 3107 3109 3110 3112 3114 3115 3116 3118 3119 3122 3125 3127 3129 3131 3132 3133 3134 3135 3136 3136 3137 3140 3142 3143 3145 3148 3150 3151 3153 3155 3156 3157 3158 3158 3157 3158 3160 3161 3161 3162 3162 3163 3164 3165 3166 3167 3168 3170 3171 3173 3175 3176
3129 3128 3126 3124 3122 3121 3120 3119 3118 3117 3116 3115 3113 3112 3110 3109 3108 3107 3105 3103 3103 3103 3102 3102 3102 3102 3101 3100 3099 3099 3099 3099 3098 3100 3102 3103 3105 3106 3108 3110 3112 3114 3115 3116 3117 3119 3121 3124 3125 3125 3125 3126 3127 3129 3131 3133 3136 3139 3140 3142 3145 3147 3148 3149 3152 3153 3154 3155 3156 3156 3156 3156 3158 3159 3160 3160 3160 3161 3162 3163 3164 3165 3166 3168 3170 3171 3173 3175
3128 3126 3124 3122 3120 3119 3118 3117 3115 3114 3113 3112 3111 3110 3109 3108 3106 3106 3105 3102 3101 3101 3101 3100 3100 3100 3100 3099 3098 3097 3098 3097 3096 3098 3100 3101 3103 3105 3106 3108 3110 3112 3113 3114 3115 3117 3120 3120 3118 3117 3119 3121 3124 3128 3130 3133 3136 3138 3141 3142 3144 3145 3147 3149 3151 3152 3153 3153 3153 3154 3154 3154 3156 3157 3158 3158 3158 3159 3160 3161 3162 3163 3164 3166 3168 3170 3172 3174
3126 3125 3123 3121 3119 3117 3116 3114 3113 3112 3111 3109 3108 3107 3106 3106 3104 3104 3104 3102 3100 3099 3099 3099 3098 3098 3098 3097 3097 3096 3096 3095 3095 3096 3097 3099 3102 3103 3104 3105 3107 3107 3110 3113 3114 3116 3118 3115 3113 3115 3118 3121 3125 3128 3130 3133 3135 3138 3139 3141 3142 3143 3145 3147 3148 3150 3151 3151 3151 3152 3152 3152 3153 3155 3156 3156 3156 3156 3157 3158 3159 3161 3163 3164 3166 3168 3170 3172
3125 3123 3121 3119 3117 3115 3114 3112 3110 3109 3108 3106 3105 3105 3104 3103 3103 3101 3101 3100 3099 3098 3098 3097 3097 3096 3096 3096 3095 3095 3095 3094 3093 3093 3094 3097 3099 3101 3102 3103 3105 3106 3108 3111 3111 3113 3113 3110 3112 3115 3118 3122 3126 3128 3130 3132 3134 3136 3138 3138 3140 3141 3142 3145 3146 3148 3149 3149 3149 3150 3150 3149 3151 3152 3153 3153 3153 3155 3156 3156 3157 3159 3161 3163 3165 3167 3168 3170
3123 3121 3119 3118 3115 3113 3111 3110 3108 3106 3105 3104 3103 3102 3102 3101 3101 3099 3098 3098 3098 3097 3096 3096 3095 3095 3095 3095 3095 3094 3093 3093 3092 3092 3093 3094 3096 3099 3100 3101 3103 3105 3107 3106 3107 3109 3108 3109 3111 3113 3117 3122 3124 3126 3128 3130 3132 3133 3135 3136 3137 3138 3142 3145 3145 3146 3147 3148 3148 3148 3148 3147 3148 3149 3150 3151 3151 3153 3154 3154 3154 3156 3158 3160 3163 3165 3166 3168
3121 3119 3118 3116 3114 3111 3109 3108 3106 3104 3103 3102 3101 3100 3100 3099 3099 3098 3096 3096 3096 3095 3095 3094 3094 3094 3094 3094 3094 3093 3092 3092 3091 3091 3092 3092 3094 3095 3097 3099 3102 3103 3103 3104 3106 3106 3106 3109 3110 3111 3116 3120 3122 3124 3126 3128 3129 3129 3131 3132 3134 3137 3140 3142 3143 3144 3146 3147 3146 3147 3146 3144 3144 3146 3147 3148 3149 3150 3151 3151 3152 3153 3155 3157 3160 3163 3164 3166
3119 3117 3115 3114 3112 3109 3107 3106 3104 3103 3101 3100 3099 3098 3098 3097 3097 3096 3095 3094 3094 3094 3093 3093 3093 3093 3092 3092 3093 3092 3092 3091 3091 3091 3091 3091 3092 3093 3094 3097 3099 3100 3101 3104 3107 3106 3107 3110 3109 3111 3115 3118 3120 3122 3123 3125 3127 3127 3127 3129 3133 3136 3139 3141 3142 3144 3145 3146 3145 3146 3145 3139 3140 3144 3144 3145 3147 3148 3148 3149 3150 3152 3153 3155 3158 3160 3162 3163
3117 3116 3113 3111 3110 3108 3105 3104 3102 3101 3100 3099 3097 3096 3096 3096 3095 3095 3094 3093 3093 3092 3092 3092 3092 3092 3091 3091 3092 3091 3091 3090 3090 3090 3090 3090 3091 3092 3093 3095 3096 3098 3100 3104 3106 3104 3105 3108 3108 3110 3114 3115 3118 3119 3121 3124 3126 3125 3124 3127 3133 3136 3138 3140 3142 3144 3144 3144 3143 3144 3143 3137 3136 3140 3141 3142 3144 3145 3146 3146 3148 3150 3151 3153 3155 3157 3159 3161
3115 3114 3112 3109 3108 3106 3103 3101 3100 3098 3098 3097 3096 3095 3095 3094 3093 3093 3093 3092 3092 3091 3091 3091 3091 3090 3090 3090 3090 3090 3090 3089 3089 3089 3089 3090 3090 3091 3092 3093 3094 3096 3099 3103 3103 3099 3101 3105 3105 3108 3112 3113 3114 3115 3118 3122 3124 3123 3123 3127 3131 3134 3137 3138 3141 3142 3142 3142 3141 3142 3143 3137 3132 3133 3137 3139 3140 3141 3142 3143 3145 3147 3149 3151 3153 3155 3157 3159
3113 3111 3110 3107 3105 3103 3101 3099 3098 3096 3095 3095 3094 3094 3093 3092 3092 3092 3092 3092 3090 3090 3090 3090 3090 3089 3089 3089 3089 3089 3089 3088 3088 3088 3089 3089 3089 3090 3091 3091 3093 3095 3096 3099 3098 3096 3099 3103 3102 3106 3110 3110 3110 3113 3116 3120 3122 3122 3123 3126 3130 3134 3135 3138 3140 3141 3141 3141 3138 3138 3141 3138 3128 3126 3132 3135 3136 3138 3138 3141 3143 3145 3148 3149 3151 3152 3154 3157
3111 3109 3107 3105 3103 3101 3099 3096 3095 3094 3093 3092 3092 3092 3091 3091 3091 3091 3091 3092 3090 3088 3088 3088 3088 3088 3088 3089 3089 3088 3088 3087 3087 3087 3087 3088 3088 3088 3089 3090 3092 3094 3095 3096 3096 3097 3099 3101 3102 3105 3107 3106 3108 3113 3116 3118 3120 3121 3124 3127 3129 3132 3134 3137 3139 3139 3142 3138 3131 3133 3137 3136 3127 3121 3126 3131 3131 3133 3135 3138 3142 3143 3146 3147 3148 3150 3152 3154
3109 3107 3105 3103 3101 3100 3098 3095 3093 3092 3091 3090 3090 3090 3090 3089 3090 3090 3091 3090 3088 3087 3087 3087 3087 3087 3087 3088 3088 3088 3087 3087 3086 3085 3086 3086 3086 3086 3087 3089 3091 3092 3093 3094 3095 3096 3098 3101 3102 3102 3103 3105 3109 3113 3114 3116 3118 3121 3125 3127 3129 3130 3132 3135 3135 3138 3139 3129 3124 3129 3133 3135 3127 3116 3120 3126 3126 3130 3133 3136 3139 3141 3144 3145 3146 3148 3149 3152
3107 3105 3102 3100 3099 3097 3096 3095 3092 3091 3090 3089 3088 3088 3088 3088 3089 3090 3089 3087 3087 3087 3086 3086 3086 3085 3085 3086 3087 3087 3086 3086 3085 3085 3085 3085 3084 3085 3086 3087 3088 3091 3092 3092 3092 3094 3096 3099 3099 3099 3101 3105 3109 3111 3112 3114 3116 3119 3123 3126 3128 3129 3131 3132 3132 3136 3131 3120 3120 3127 3129 3132 3123 3111 3115 3121 3123 3128 3131 3134 3137 3139 3141 3143 3145 3146 3148 3150
3105 3103 3100 3098 3096 3095 3094 3093 3092 3090 3089 3088 3087 3086 3087 3087 3087 3087 3087 3086 3087 3086 3085 3085 3085 3084 3084 3085 3086 3086 3085 3084 3084 3084 3084 3084 3083 3083 3084 3084 3085 3087 3088 3088 3090 3091 3093 3095 3095 3097 3101 3104 3106 3108 3110 3112 3114 3116 3120 3123 3125 3126 3128 3128 3127 3127 3122 3117 3120 3124 3126 3125 3115 3110 3113 3116 3121 3126 3128 3131 3134 3136 3139 3140 3143 3145 3146 3148
3102 3100 3098 3096 3094 3093 3091 3090 3089 3088 3087 3087 3086 3085 3085 3086 3086 3085 3085 3086 3086 3085 3084 3085 3084 3084 3084 3084 3084 3084 3084 3083 3083 3083 3083 3083 3083 3082 3083 3082 3082 3084 3084 3085 3088 3089 3091 3092 3093 3097 3099 3101 3102 3105 3106 3107 3110 3112 3115 3118 3119 3120 3123 3122 3121 3119 3117 3117 3118 3121 3124 3118 3109 3110 3111 3112 3119 3123 3125 3128 3131 3133 3136 3138 3140 3142 3144 3145
3100 3098 3096 3094 3092 3091 3089 3088 3087 3086 3086 3085 3085 3084 3085 3085 3084 3083 3083 3084 3084 3084 3084 3084 3084 3084 3083 3083 3083 3083 3083 3082 3082 3082 3082 3082 3082 3082 3082 3081 3081 3082 3082 3084 3085 3086 3088 3087 3088 3092 3095 3096 3098 3101 3103 3105 3107 3109 3111 3114 3114 3113 3115 3116 3116 3116 3115 3116 3116 3119 3119 3111 3107 3108 3108 3111 3117 3120 3122 3125 3127 3130 3132 3134 3137 3139 3141 3143
3099 3096 3094 3092 3090 3088 3087 3086 3084 3084 3083 3083 3083 3083 3083 3083 3082 3082 3082 3083 3083 3084 3083 3083 3083 3084 3083 3083 3083 3082 3082 3082 3081 3081 3081 3081 3082 3081 3081 3081 3080 3080 3081 3082 3083 3083 3084 3083 3084 3087 3090 3092 3095 3098 3101 3104 3105 3106 3109 3111 3109 3109 3112 3113 3113 3113 3114 3114 3112 3112 3110 3105 3105 3106 3107 3111 3114 3116 3120 3121 3124 3127 3128 3131 3134 3136 3139 3140
3098 3094 3092 3090 3088 3086 3085 3084 3082 3081 3081 3081 3081 3082 3081 3081 3081 3081 3082 3082 3082 3083 3083 3083 3083 3083 3083 3083 3083 3082 3082 3082 3081 3081 3081 3080 3081 3081 3080 3080 3080 3080 3079 3080 3081 3081 3081 3081 3082 3085 3088 3090 3092 3095 3098 3101 3101 3102 3104 3104 3104 3107 3111 3112 3112 3112 3114 3112 3106 3105 3105 3104 3105 3105 3106 3109 3111 3113 3116 3118 3121 3123 3125 3128 3130 3132 3136 3138
3097 3093 3091 3089 3087 3085 3083 3082 3080 3079 3079 3079 3080 3080 3080 3080 3080 3081 3081 3081 3082 3082 3082 3083 3083 3083 3083 3083 3083 3082 3081 3081 3081 3081 3081 3080 3080 3080 3080 3080 3079 3079 3079 3079 3080 3080 3080 3079 3080 3083 3085 3087 3090 3093 3095 3097 3098 3099 3100 3101 3104 3108 3110 3111 3111 3110 3110 3108 3101 3101 3103 3103 3103 3102 3102 3107 3109 3111 3113 3115 3118 3120 3122 3124 3126 3130 3133 3135
3094 3091 3089 3087 3085 3083 3081 3080 3078 3077 3077 3078 3078 3079 3079 3079 3080 3080 3081 3081 3081 3082 3082 3083 3083 3082 3083 3083 3082 3082 3081 3081 3081 3080 3080 3080 3079 3079 3079 3079 3079 3079 3079 3079 3079 3079 3079 3079 3079 3080 3083 3085 3087 3091 3093 3094 3095 3097 3098 3099 3102 3104 3105 3107 3108 3105 3105 3102 3098 3098 3100 3100 3100 3099 3100 3104 3106 3108 3111 3113 3115 3117 3119 3121 3123 3127 3130 3132
3091 3088 3087 3085 3083 3081 3079 3078 3077 3076 3076 3077 3077 3078 3078 3079 3079 3080 3081 3081 3081 3081 3081 3082 3082 3082 3082 3082 3082 3081 3081 3081 3081 3080 3080 3079 3079 3078 3078 3078 3079 3079 3078 3078 3078 3078 3078 3079 3078 3078 3081 3083 3085 3088 3090 3091 3093 3095 3096 3097 3098 3099 3100 3101 3102 3100 3100 3098 3096 3096 3096 3095 3095 3097 3099 3101 3103 3106 3108 3110 3112 3114 3116 3119 3121 3123 3126 3129
3090 3087 3085 3083 3081 3079 3077 3076 3076 3076 3076 3076 3077 3077 3078 3078 3079 3080 3080 3081 3081 3081 3081 3081 3082 3082 3081 3081 3081 3081 3081 3080 3080 3080 3079 3079 3078 3078 3077 3077 3077 3078 3078 3078 3078 3077 3078 3078 3077 3076 3079 3081 3082 3084 3086 3087 3089 3091 3093 3094 3095 3096 3097 3098 3097 3096 3096 3095 3093 3093 3092 3090 3092 3094 3097 3098 3100 3103 3105 3107 3109 3111 3114 3116 3118 3120 3123 3126
3088 3086 3083 3081 3079 3078 3076 3076 3075 3075 3075 3075 3076 3076 3077 3078 3079 3079 3080 3080 3080 3080 3080 3081 3081 3081 3081 3081 3081 3080 3080 3080 3079 3079 3079 3078 3078 3077 3077 3076 3076 3077 3077 3077 3077 3077 3077 3077 3076 3075 3076 3078 3079 3081 3082 3084 3085 3086 3088 3089 3090 3091 3092 3093 3091 3091 3093 3091 3090 3091 3089 3087 3090 3093 3094 3096 3097 3099 3102 3104 3106 3108 3112 3114 3116 3118 3120 3123
3086 3084 3082 3080 3078 3077 3076 3075 3074 3074 3074 3074 3075 3075 3076 3077 3078 3078 3079 3079 3079 3080 3080 3080 3080 3080 3080 3080 3080 3080 3079 3079 3078 3078 3078 3077 3077 3077 3076 3076 3075 3076 3076 3076 3076 3076 3076 3076 3075 3074 3074 3075 3077 3079 3080 3081 3083 3084 3084 3085 3087 3087 3088 3089 3087 3087 3089 3087 3088 3090 3086 3084 3088 3091 3093 3094 3095 3097 3099 3101 3103 3105 3109 3111 3114 3116 3118 3120
3084 3083 3081 3079 3078 3076 3075 3074 3074 3073 3073 3074 3074 3075 3075 3076 3077 3078 3078 3078 3079 3079 3079 3079 3079 3079 3079 3079 3079 3079 3079 3078 3078 3077 3077 3077 3076 3076 3075 3075 3075 3075 3075 3075 3075 3075 3075 3075 3074 3074 3073 3074 3076 3077 3077 3079 3080 3081 3081 3082 3084 3084 3085 3085 3085 3086 3086 3084 3086 3088 3083 3081 3085 3089 3091 3093 3093 3095 3097 3098 3100 3103 3106 3109 3112 3114 3116 3118
3083 3082 3080 3079 3077 3075 3075 3074 3073 3073 3073 3073 3074 3074 3075 3075 3076 3076 3077 3077 3077 3078 3078 3078 3078 3078 3078 3078 3078 3078 3078 3078 3077 3076 3076 3076 3075 3075 3074 3074 3074 3074 3074 3074 3074 3074 3075 3075 3074 3073 3072 3073 3074 3075 3075 3076 3077 3077 3078 3079 3081 3082 3083 3083 3083 3086 3084 3082 3084 3083 3079 3081 3084 3086 3089 3092 3092 3093 3094 3096 3098 3101 3103 3106 3109 3111 3114 3115
3082 3080 3079 3078 3076 3075 3074 3073 3072 3072 3072 3072 3073 3074 3074 3074 3075 3075 3076 3076 3076 3076 3076 3076 3076 3076 3077 3077 3077 3077 3077 3077 3076 3076 3075 3075 3074 3074 3073 3073 3073 3073 3073 3073 3072 3073 3073 3073 3073 3073 3070 3068 3069 3070 3071 3072 3073 3074 3075 3077 3078 3079 3080 3081 3082 3084 3082 3081 3081 3079 3077 3080 3084 3085 3088 3090 3091 3092 3093 3094 3097 3099 3102 3104 3107 3109 3111 3112
3081 3079 3078 3077 3075 3074 3072 3071 3071 3071 3071 3072 3072 3073 3073 3074 3074 3074 3075 3075 3075 3075 3075 3075 3075 3075 3075 3075 3076 3076 3075 3075 3075 3074 3074 3073 3073 3072 3072 3072 3072 3071 3072 3071 3071 3071 3071 3071 3071 3072 3069 3066 3066 3067 3068 3069 3070 3072 3073 3074 3076 3077 3077 3078 3080 3080 3080 3078 3077 3077 3078 3080 3082 3085 3087 3089 3090 3091 3092 3094 3095 3097 3100 3102 3103 3106 3108 3109
3079 3078 3077 3075 3074 3073 3072 3071 3071 3070 3070 3071 3071 3072 3073 3073 3073 3073 3073 3073 3073 3073 3074 3074 3074 3074 3074 3074 3074 3074 3073 3073 3073 3073 3073 3072 3072 3071 3071 3071 3070 3070 3070 3070 3070 3070 3070 3069 3069 3069 3068 3066 3065 3066 3067 3068 3068 3069 3070 3071 3073 3074 3075 3075 3076 3076 3077 3076 3074 3075 3078 3079 3081 3084 3087 3088 3089 3089 3090 3092 3093 3094 3096 3097 3099 3101 3103 3105
3079 3077 3076 3075 3074 3073 3072 3071 3070 3070 3069 3070 3070 3071 3071 3072 3072 3072 3072 3072 3072 3072 3073 3073 3072 3072 3072 3072 3073 3073 3072 3072 3072 3072 3071 3071 3070 3070 3069 3070 3069 3069 3069 3069 3068 3068 3068 3068 3067 3067 3065 3064 3064 3065 3065 3066 3066 3067 3067 3069 3070 3072 3072 3072 3073 3074 3075 3073 3071 3074 3076 3077 3079 3083 3084 3085 3086 3086 3087 3088 3089 3090 3092 3094 3096 3097 3099 3100
3078 3076 3075 3074 3073 3073 3072 3071 3070 3069 3069 3069 3069 3070 3070 3071 3071 3071 3071 3071 3071 3071 3072 3072 3071 3071 3071 3071 3071 3071 3071 3071 3071 3070 3070 3070 3069 3068 3068 3068 3068 3068 3067 3068 3067 3067 3067 3067 3066 3065 3063 3062 3062 3063 3063 3065 3065 3064 3065 3066 3067 3068 3069 3069 3070 3071 3071 3069 3070 3073 3074 3075 3077 3080 3080 3082 3084 3084 3085 3086 3087 3088 3090 3091 3093 3094 3095 3097
3078 3076 3074 3073 3073 3072 3071 3070 3069 3069 3068 3068 3069 3069 3070 3070 3070 3070 3070 3070 3070 3070 3070 3070 3070 3070 3070 3070 3070 3070 3070 3069 3069 3069 3069 3068 3067 3067 3067 3066 3066 3066 3066 3066 3066 3066 3066 3066 3065 3063 3062 3060 3059 3061 3062 3063 3063 3062 3061 3063 3064 3065 3066 3066 3067 3068 3068 3067 3068 3071 3071 3072 3074 3076 3077 3079 3081 3081 3082 3084 3085 3086 3086 3087 3089 3090 3091 3093
3078 3077 3075 3073 3072 3072 3071 3070 3069 3068 3068 3068 3069 3069 3069 3070 3070 3070 3069 3069 3069 3069 3069 3069 3069 3069 3069 3069 3068 3068 3068 3068 3067 3067 3067 3066 3065 3065 3065 3064 3065 3065 3064 3064 3064 3064 3064 3064 3063 3063 3062 3059 3058 3060 3060 3061 3061 3060 3058 3059 3061 3063 3063 3064 3064 3065 3065 3064 3066 3068 3069 3068 3069 3071 3072 3075 3077 3078 3079 3080 3081 3083 3083 3084 3085 3086 3087 3088
3078 3076 3075 3073 3072 3071 3071 3070 3069 3068 3068 3068 3068 3069 3069 3069 3069 3069 3069 3069 3068 3068 3068 3068 3068 3068 3068 3068 3067 3067 3066 3066 3065 3065 3065 3064 3063 3062 3062 3062 3062 3062 3062 3062 3062 3062 3063 3063 3063 3063 3061 3058 3058 3059 3059 3060 3060 3057 3054 3056 3059 3061 3061 3061 3062 3063 3062 3061 3063 3064 3064 3064 3065 3066 3068 3070 3073 3075 3076 3077 3078 3079 3080 3080 3081 3082 3082 3083